[[{"header":{"parameterUnit":"m.s-1","parameterCategory":1,"la1":30.2991,"la2":30.254,"lo1":-89.0895,"lo2":-89.0444,"dy":0.0017,"dx":0.0017,"nx":28,"ny":28,"refTime":"2023-07-23T09:00:00:Z","depth":0,"parameterNumber":2,"parameterNumberName":"U-component_of_WINDS"},"data":[0,0,0,0,0,0,0,0,0,0,0,0,0,0,0,0,0,0,0,0,0,0,0,0,0,0,0,0,0,0,0,0,0,0,0,0,0,0,0,0,0,0,0,0,0,0,0,0,0,0,0,0,0,0,0,0,0,0,0.8684,0.8685,0,0.8816,0.8817,0.8819,0.8857,0.8856,0.8856,0.8855,0.8991,0.8995,0.8999,0,0,0,0,0,0,0,0,0,0,0,0,0,0.8465,0.8469,0.8683,0.8685,0.8687,0.8815,0.8817,0.8819,0.8857,0.8856,0.8856,0.8855,0.8989,0.8994,0.8999,0,0,0,0,0,0,0,0,0,0,0,0,0,0.8575,0.847,0.8683,0.8721,0.8726,0.8815,0.8817,0.8819,0.8857,0.8856,0.8855,0.8854,0.8988,0.8994,0.9,0.9061,0,0,0.902,0.9022,0,0,0,0,0,0,0,0,0.8568,0.8583,0.8714,0.8719,0.8724,0.8819,0.879,0.89,0.8858,0.8808,0.8855,0.8854,0.8934,0.8945,0.8972,0.9067,0.9073,0.902,0.9024,0.9027,0.9029,0,0,0,0,0,0,0,0.8561,0.8577,0.8736,0.8716,0.8722,0.8732,0.8747,0.8811,0.8875,0.8812,0.8815,0.883,0.8937,0.8966,0.8976,0.9075,0.902,0.9026,0.903,0.9032,0.9227,0.9228,0,0,0,0,0,0,0.8547,0.8571,0.8732,0.874,0.8642,0.8737,0.8753,0.879,0.8875,0.8887,0.8831,0.8831,0.8955,0.8968,0.8981,0.9058,0.9027,0.9033,0.9036,0.9225,0.9227,0.9228,0,0,0,0,0,0,0.8542,0.8561,0.8726,0.8656,0.8678,0.8742,0.8783,0.8793,0.8822,0.8889,0.8901,0.8849,0.8955,0.8972,0.9041,0.9063,0.9036,0.9041,0.9224,0.9226,0.9228,0.9212,0,0,0,0,0,0,0.8535,0.8559,0.8582,0.8656,0.8682,0.8784,0.8784,0.8796,0.8833,0.8835,0.8909,0.892,0.8956,0.9031,0.9047,0.9071,0.9046,0.9222,0.9225,0.9227,0.9211,0.9213,0.9215,0,0,0,0,0,0.8527,0.8572,0.8583,0.8602,0.8712,0.8785,0.8799,0.8839,0.8834,0.8859,0.8902,0.8918,0.9058,0.9038,0.9056,0.9082,0.9221,0.9224,0.9227,0.921,0.9212,0.9215,0,0,0,0,0,0,0.8499,0.8583,0.8596,0.8666,0.8718,0.8791,0.8823,0.8841,0.8896,0.8895,0.8943,0.8959,0.9025,0.9061,0.9037,0.9146,0.914,0.9147,0.912,0.9124,0.9126,0.9116,0.9052,0,0,0,0,0,0.8501,0.8553,0.8623,0.8678,0.8704,0.8759,0.8792,0.8818,0.8874,0.8897,0.8945,0.8999,0.9055,0.9091,0.9147,0.9216,0.9233,0.9243,0.9245,0.9247,0.9252,0.9292,0.9298,0.9238,0.9238,0.9238,0,0,0.8505,0.8557,0.8587,0.8674,0.8717,0.8771,0.8777,0.8833,0.8873,0.8905,0.8974,0.9011,0.9074,0.9144,0.9177,0.9175,0.9273,0.9251,0.9251,0.9256,0.9296,0.9301,0.9306,0.924,0.924,0.924,0,0,0.854,0.8585,0.8636,0.868,0.8746,0.8782,0.8794,0.8865,0.8891,0.8961,0.8986,0.9034,0.913,0.9174,0.9209,0.9262,0.9279,0.9278,0.929,0.9329,0.9333,0.9338,0.9357,0.9364,0.9284,0.9284,0.9284,0,0.8537,0.8619,0.866,0.8715,0.8753,0.8784,0.8837,0.8877,0.8957,0.8983,0.898,0.9101,0.9146,0.9227,0.9239,0.9267,0.9282,0.9271,0.9329,0.9334,0.9339,0.9358,0.9365,0.9283,0.9283,0.9283,0.9283,0,0.8612,0.8668,0.8701,0.8779,0.882,0.8873,0.8923,0.896,0.8983,0.9019,0.909,0.9145,0.9212,0.9233,0.9256,0.9317,0.9314,0.932,0.9315,0.9343,0.9362,0.937,0.9283,0.9283,0.9283,0.9283,0,0,0.8633,0.8733,0.8745,0.8781,0.8856,0.89,0.8955,0.9021,0.9052,0.9106,0.9154,0.9234,0.924,0.928,0.9307,0.9341,0.938,0.9343,0.9345,0.9348,0.9452,0.9448,0.9456,0.9391,0.9393,0.9394,0.9447,0,0.8679,0.8778,0.8817,0.8898,0.8951,0.8981,0.9029,0.9081,0.9117,0.9167,0.9206,0.9263,0.9266,0.929,0.9324,0.9368,0.9402,0.9364,0.9437,0.9439,0.9421,0.9466,0.9461,0.9509,0.9455,0.9456,0.9457,0,0.8745,0.88,0.8886,0.8956,0.8979,0.9022,0.9086,0.9133,0.9192,0.9216,0.926,0.9286,0.9345,0.9336,0.9418,0.9392,0.9424,0.945,0.9453,0.9462,0.945,0.9476,0.9525,0.9532,0.9469,0.9468,0.9467,0,0.8752,0.8848,0.8913,0.8942,0.9025,0.9054,0.909,0.9148,0.9185,0.9241,0.9266,0.9328,0.9362,0.9409,0.9452,0.9441,0.953,0.9524,0.9552,0.9551,0.957,0.9569,0.9625,0.9589,0.9589,0.9589,0.9589,0,0.8799,0.8851,0.8917,0.8957,0.9016,0.9061,0.9118,0.9156,0.9207,0.9255,0.9285,0.9329,0.9382,0.9433,0.9466,0.953,0.9545,0.9566,0.9575,0.9564,0.9561,0.9586,0.9584,0.9591,0.9591,0.959,0.959,0,0.8818,0.8864,0.8937,0.9009,0.9028,0.9069,0.9131,0.9171,0.9208,0.9268,0.9284,0.9343,0.9405,0.9451,0.9531,0.9554,0.9622,0.963,0.9602,0.9606,0.9632,0.9629,0.9707,0.972,0.9674,0.9675,0.9675,0,0.8845,0.8886,0.8962,0.8997,0.9032,0.9087,0.9125,0.9171,0.921,0.928,0.9312,0.9375,0.9429,0.9526,0.9576,0.9638,0.9648,0.9671,0.9658,0.9646,0.965,0.9647,0.9652,0.9673,0.9674,0.9674,0.9674,0,0.8888,0.891,0.8964,0.9027,0.9072,0.9123,0.9175,0.9201,0.9256,0.9298,0.9362,0.9403,0.9485,0.9549,0.9615,0.9652,0.9673,0.9678,0.9688,0.9678,0.966,0.9671,0.9608,0.9676,0.9676,0.9676,0.9675,0.9675,0.8913,0.8951,0.9011,0.9071,0.9115,0.9163,0.9204,0.9246,0.93,0.937,0.9394,0.946,0.9519,0.961,0.9648,0.97,0.9701,0.9715,0.9719,0.9722,0.9721,0.9651,0.9713,0.9713,0.9713,0.9713,0.9713,0,0.8959,0.8999,0.9053,0.9125,0.9172,0.9187,0.9246,0.9284,0.9342,0.9395,0.9447,0.952,0.9582,0.9637,0.9701,0.9733,0.9744,0.9748,0.9747,0.9755,0.9717,0.9702,0.9738,0.9738,0.9738,0.9738,0.9738,0.9738,0.8988,0.9053,0.9081,0.9169,0.9209,0.9274,0.9306,0.9351,0.9393,0.9474,0.9526,0.9561,0.9615,0.9683,0.9741,0.9756,0.9778,0.978,0.9797,0.9761,0.9758,0.9755,0.9741,0.9785,0.9785,0.9831,0.9832,0.9832]},{"header":{"parameterUnit":"m.s-1","parameterCategory":1,"la1":30.2991,"la2":30.254,"lo1":-89.0895,"lo2":-89.0444,"dy":0.0017,"dx":0.0017,"nx":28,"ny":28,"refTime":"2023-07-23T09:00:00:Z","depth":0,"parameterNumber":3,"parameterNumberName":"V-component_of_WINDS"},"data":[0,0,0,0,0,0,0,0,0,0,0,0,0,0,0,0,0,0,0,0,0,0,0,0,0,0,0,0,0,0,0,0,0,0,0,0,0,0,0,0,0,0,0,0,0,0,0,0,0,0,0,0,0,0,0,0,0,0,3.9484,3.9484,0,3.9455,3.9455,3.9454,3.9394,3.9393,3.9392,3.9391,3.9363,3.9363,3.9364,0,0,0,0,0,0,0,0,0,0,0,0,0,3.949,3.949,3.9484,3.9484,3.9483,3.9455,3.9455,3.9454,3.9395,3.9393,3.9392,3.939,3.9363,3.9363,3.9364,0,0,0,0,0,0,0,0,0,0,0,0,0,3.9477,3.949,3.9484,3.945,3.9447,3.9455,3.9455,3.9454,3.9395,3.9393,3.9391,3.939,3.9363,3.9363,3.9364,3.9403,0,0,3.9366,3.9366,0,0,0,0,0,0,0,0,3.9478,3.9477,3.9456,3.9453,3.9449,3.9426,3.9446,3.9437,3.9395,3.9415,3.9391,3.9389,3.9386,3.9384,3.9383,3.9402,3.9401,3.9366,3.9366,3.9366,3.9366,0,0,0,0,0,0,0,3.9479,3.9478,3.9473,3.9455,3.9451,3.9437,3.9433,3.9444,3.9411,3.9413,3.9408,3.9406,3.9383,3.9382,3.9382,3.9401,3.9366,3.9366,3.9366,3.9367,3.9451,3.9453,0,0,0,0,0,0,3.9484,3.9479,3.9474,3.9472,3.9459,3.9438,3.9434,3.9436,3.941,3.9405,3.9407,3.9403,3.9382,3.9381,3.9381,3.9425,3.9366,3.9367,3.9367,3.9449,3.9452,3.9454,0,0,0,0,0,0,3.9485,3.9484,3.9475,3.9474,3.9472,3.944,3.9442,3.9436,3.9435,3.9406,3.94,3.9412,3.9381,3.938,3.9398,3.9423,3.9367,3.9367,3.9447,3.945,3.9453,3.9515,0,0,0,0,0,0,3.9485,3.9485,3.9499,3.9475,3.9472,3.9492,3.9444,3.9437,3.9436,3.943,3.9409,3.9404,3.9379,3.9398,3.9399,3.9423,3.9368,3.9445,3.9448,3.9452,3.9511,3.952,3.9527,0,0,0,0,0,3.9485,3.9518,3.95,3.95,3.9489,3.9494,3.9492,3.9463,3.9438,3.9452,3.9434,3.9405,3.9421,3.94,3.9401,3.9426,3.9443,3.9447,3.9452,3.9507,3.9518,3.9527,0,0,0,0,0,0,3.9547,3.9514,3.9494,3.952,3.951,3.9484,3.9501,3.9475,3.9473,3.9468,3.9432,3.9428,3.9451,3.944,3.9418,3.9463,3.9427,3.9432,3.9469,3.9479,3.9488,3.9489,3.9368,0,0,0,0,0,3.9563,3.9569,3.9541,3.9566,3.9562,3.9533,3.9534,3.9512,3.95,3.9496,3.9479,3.947,3.9473,3.9476,3.9477,3.9509,3.9504,3.9527,3.9535,3.9542,3.9546,3.9563,3.9573,3.9468,3.9468,3.9468,0,0,3.9597,3.958,3.9586,3.9578,3.9568,3.9576,3.953,3.954,3.9545,3.9498,3.9514,3.9502,3.9489,3.9515,3.9525,3.9506,3.9574,3.9548,3.9554,3.9554,3.9568,3.9578,3.9587,3.9471,3.947,3.947,0,0,3.9663,3.9651,3.967,3.9661,3.9646,3.9627,3.9632,3.9609,3.9599,3.9615,3.9579,3.9586,3.9592,3.9584,3.9581,3.9645,3.9618,3.9646,3.969,3.9707,3.9715,3.9722,3.9745,3.9754,3.9651,3.9651,3.9651,0,3.9707,3.9716,3.9684,3.9696,3.9694,3.9651,3.9671,3.9664,3.9651,3.9651,3.963,3.9636,3.9625,3.9648,3.9664,3.9663,3.9667,3.9648,3.9716,3.9723,3.9729,3.9751,3.9759,3.9655,3.9654,3.9654,3.9653,0,3.9772,3.9779,3.9797,3.9784,3.9784,3.98,3.9771,3.9775,3.9753,3.9736,3.9753,3.9738,3.9735,3.9739,3.9718,3.976,3.9748,3.9723,3.9686,3.9744,3.9763,3.9771,3.966,3.9658,3.9657,3.9656,0,0,3.9874,3.9844,3.9851,3.9845,3.9826,3.9831,3.9846,3.9843,3.9847,3.984,3.9851,3.9857,3.9833,3.983,3.9808,3.9823,3.9874,3.9795,3.9794,3.981,3.9919,3.9939,3.9948,3.9857,3.9858,3.9859,3.992,0,3.9935,3.9958,3.9929,3.9958,3.9965,3.9925,3.9938,3.9928,3.9913,3.9916,3.9899,3.9904,3.9872,3.987,3.9883,3.9866,3.9896,3.9861,3.9868,3.9868,3.9871,3.9958,3.9979,4.0037,3.9928,3.9929,3.993,0,4.0009,4.0005,4.0035,4.0014,4.0015,4.0027,4.0022,4.0027,4.0015,4.0003,3.9999,3.9973,3.9987,3.9952,3.997,3.9947,3.9948,3.994,3.9942,3.9941,3.9902,3.996,4.0055,4.0064,3.9942,3.9941,3.994,0,4.0081,4.0083,4.01,4.0097,4.0073,4.0082,4.0073,4.006,4.006,4.0056,4.0056,4.0054,4.0053,4.0052,4.0027,4.0003,4.0049,4.0011,4.0039,4.004,4.005,4.0049,4.0146,4.0052,4.0051,4.0051,4.0051,0,4.0152,4.0171,4.0132,4.0143,4.0164,4.0132,4.0154,4.0141,4.0129,4.0137,4.0103,4.0112,4.0078,4.0083,4.0063,4.0082,4.0081,4.0072,4.0067,4.0075,4.0076,4.0075,4.007,4.0054,4.0053,4.0053,4.0052,0,4.0235,4.0209,4.0226,4.0203,4.0197,4.0214,4.0194,4.0204,4.0186,4.0197,4.0198,4.0171,4.0175,4.0149,4.0149,4.0136,4.0164,4.0152,4.0168,4.0164,4.0193,4.0191,4.0292,4.0304,4.0202,4.0203,4.0204,0,4.0281,4.0296,4.0274,4.0276,4.0269,4.0274,4.0274,4.0243,4.0244,4.0232,4.0244,4.0245,4.0245,4.0254,4.0234,4.0234,4.0221,4.0257,4.0221,4.0229,4.0222,4.0221,4.0222,4.0264,4.0266,4.0267,4.0268,0,4.0367,4.0354,4.0354,4.0351,4.0352,4.0348,4.0342,4.0346,4.0313,4.0317,4.032,4.032,4.032,4.0322,4.0318,4.0309,4.0283,4.0279,4.0285,4.0294,4.0303,4.0298,4.0188,4.0277,4.0276,4.0275,4.0275,4.0274,4.0433,4.0444,4.043,4.0432,4.0424,4.0419,4.0427,4.0411,4.0413,4.041,4.0392,4.04,4.0388,4.038,4.0374,4.038,4.0363,4.0372,4.0374,4.0377,4.0382,4.0302,4.0379,4.0379,4.0378,4.0378,4.0378,0,4.0516,4.0505,4.0508,4.05,4.0502,4.0477,4.0469,4.0473,4.0479,4.0471,4.0471,4.0476,4.0478,4.0459,4.0459,4.0467,4.0455,4.0468,4.0467,4.0465,4.0397,4.0392,4.0478,4.0478,4.0478,4.0478,4.0477,4.0477,4.056,4.0576,4.0562,4.0575,4.0564,4.057,4.0568,4.0564,4.0557,4.0563,4.0565,4.0552,4.054,4.0538,4.054,4.0534,4.0535,4.0552,4.0543,4.048,4.047,4.0461,4.0455,4.0553,4.0553,4.061,4.0611,4.0611]}]]